Orbital Elements at Epoch 2459200.5 (2020-Dec-17.0) TDB
Reference: JPL 23 (heliocentric ecliptic J2000)
Element | Value | Uncertainty (1-sigma) | Units |
e | .1267526276336575 | 5.1255e-08 | |
a | 2.30132471936458 | 7.9743e-09 | au |
q | 2.00962576414683 | 1.1908e-07 | au |
i | 3.270878150727813 | 4.0558e-06 | deg |
node | 66.18715462505797 | 8.5724e-05 | deg |
peri | 277.7834123620352 | 8.7054e-05 | deg |
M | 352.7191595064403 | 1.5478e-05 | deg |
tp | 2459226.289581606082 (2021-Jan-11.78958161) | 5.4832e-05 | TDB |
period | 1275.161760019611 3.49 | 6.6278e-06 1.815e-08 | d yr |
n | .2823171234326095 | 1.4674e-09 | deg/d |
Q | 2.593023674582331 | 8.9851e-09 | au |
|
| | Orbit Determination Parameters
Additional Information
|